Wind_Speed
62 60 56 52 51 51 52 54 57 59 60 60 59 58 59 57 57 60 60 56 55 53 52 52 52 53 50 48 52 50 45 41 31 26 34 38 28 26 35 42 47 49 52 57 58 55 54 54 55 57 57 54 52 50 50 48 45 43 40 37 36 34 33 33 34 35 35 36 35 34 35 36 37 42 44 43 42 42 45 46 45 46 46 47 47 47
62 58 53 53 55 55 55 56 58 60 60 60 58 57 57 55 58 64 59 54 56 54 53 53 52 52 50 49 51 48 44 41 35 32 35 33 26 29 40 44 46 49 53 58 58 56 54 53 54 55 55 53 51 50 49 48 47 44 40 36 33 30 27 27 27 27 28 27 25 26 29 28 29 35 42 42 40 39 43 46 47 48 48 47 48 47
60 56 54 56 58 58 58 57 58 60 60 59 56 56 57 56 61 64 57 53 56 55 53 53 52 51 49 49 50 46 43 41 37 34 32 31 32 39 45 45 48 52 57 59 57 55 56 55 53 52 51 51 50 49 48 47 46 45 41 36 31 25 22 22 20 21 25 24 22 25 28 28 28 36 45 46 42 40 44 48 49 48 48 48 48 48
59 56 57 59 60 60 59 57 59 60 59 58 56 58 60 60 62 63 55 52 56 55 54 53 51 50 48 47 47 45 43 41 36 30 30 37 42 47 49 49 51 52 55 57 54 55 58 56 54 51 49 49 49 48 47 46 46 44 40 35 31 25 19 18 21 26 30 30 30 30 30 29 29 34 45 48 42 41 44 45 45 46 48 49 48 47
60 60 62 62 62 61 58 58 59 58 56 58 59 61 63 61 63 62 54 54 59 58 56 53 50 49 48 47 46 45 43 40 36 34 37 43 46 48 50 50 51 50 51 52 51 57 60 56 51 48 48 49 49 49 48 47 47 44 39 33 30 22 15 21 31 32 31 32 34 35 33 34 33 34 43 50 45 41 41 40 43 47 48 46 45 45
64 64 64 64 64 61 59 60 59 56 56 60 62 62 62 61 63 60 54 56 60 58 55 52 50 51 49 47 45 44 43 40 39 39 41 44 45 48 51 52 54 53 53 49 45 52 56 51 47 46 47 49 49 50 49 49 49 46 41 35 27 22 23 31 37 36 34 32 34 39 41 41 41 39 44 50 46 41 40 42 45 46 44 43 43 45
66 65 65 65 64 61 60 61 59 56 58 61 61 62 62 62 62 58 53 55 59 59 57 53 53 54 49 45 44 44 42 39 40 41 42 44 46 48 51 52 54 55 54 50 44 44 45 44 45 46 47 49 49 50 51 51 49 48 45 38 31 30 32 34 35 34 34 33 35 39 40 41 42 41 42 42 41 42 44 45 44 43 43 44 45 46
65 66 66 65 63 60 60 61 59 58 60 61 61 63 63 61 59 55 52 55 60 62 59 55 56 55 48 45 45 43 41 39 41 44 44 46 46 49 51 51 52 51 50 50 48 47 46 45 47 47 48 49 49 50 51 50 49 48 46 41 37 35 33 31 29 27 29 31 35 35 35 36 32 31 35 38 41 45 46 45 45 45 46 46 46 46
67 68 66 63 60 60 61 62 61 61 62 62 63 64 63 59 57 55 54 57 62 64 59 57 57 53 47 46 45 42 41 39 41 44 45 45 46 49 52 51 50 48 44 45 49 52 50 47 45 45 46 47 48 48 49 48 47 46 45 42 41 38 34 31 28 27 26 27 34 38 36 30 25 28 36 41 44 46 46 46 47 48 47 47 47 46
69 67 64 61 61 63 63 63 63 62 63 64 64 63 62 60 59 58 57 59 63 63 58 56 55 51 48 48 47 43 41 40 41 45 46 47 48 50 52 50 48 46 41 40 45 49 48 44 42 43 43 43 45 46 45 44 43 42 40 40 41 41 38 34 32 32 30 30 37 40 32 26 30 37 43 45 46 48 48 49 49 48 47 47 46 46
69 65 62 62 64 66 66 65 63 61 65 65 61 62 62 61 61 59 57 60 62 58 53 54 56 54 52 50 47 44 42 42 44 47 48 49 49 49 49 47 46 45 38 36 42 46 47 45 44 43 41 41 42 43 42 42 41 40 38 37 38 38 38 37 34 33 34 36 36 31 30 34 39 43 45 48 50 50 50 49 48 47 46 45 45 46
67 63 61 64 67 68 67 65 63 63 67 64 57 61 63 63 63 60 59 60 57 50 49 56 59 58 55 51 48 47 46 45 45 46 48 50 49 48 46 44 44 43 37 38 44 47 48 47 45 42 41 39 39 38 39 39 40 39 38 36 34 33 35 37 35 33 33 33 30 32 37 42 43 45 48 51 51 50 48 46 44 43 43 43 44 45
65 62 62 68 70 67 65 65 63 65 67 59 55 63 65 64 63 60 58 55 49 47 51 58 60 58 54 50 50 51 48 45 45 45 46 47 48 47 45 45 45 43 41 43 48 50 50 49 46 43 40 38 36 35 34 35 36 37 36 34 32 33 35 36 33 31 31 32 35 38 41 43 45 48 49 47 46 45 43 42 41 41 42 42 43 44
67 64 65 69 68 64 64 64 61 63 63 55 55 64 64 63 62 57 55 51 48 50 53 57 59 57 55 54 54 52 47 46 46 47 47 46 46 46 45 46 48 47 46 47 49 51 51 49 46 44 40 37 35 32 30 30 32 34 35 34 32 33 34 32 30 32 36 38 41 43 44 47 48 47 44 42 41 40 39 39 40 40 41 41 42 43
66 64 65 67 65 62 62 59 58 62 62 55 59 65 64 62 60 56 54 52 51 52 54 57 58 55 56 58 55 49 47 49 49 49 49 47 48 47 46 46 47 48 50 51 51 51 50 48 46 43 40 38 34 29 27 28 30 31 34 36 35 33 32 33 36 39 42 44 45 46 47 47 45 44 43 42 41 40 40 40 40 41 41 41 41 41
65 65 67 67 66 64 61 58 61 66 63 59 64 66 63 61 59 57 57 55 54 54 53 55 54 53 56 57 52 49 50 53 52 51 51 50 49 48 48 47 47 48 50 52 51 49 49 49 47 43 41 39 35 31 30 31 32 32 35 38 40 39 40 43 46 47 48 49 49 49 47 45 45 44 44 43 43 43 43 43 43 42 41 40 40 39
64 68 69 68 66 64 62 63 66 66 61 61 65 63 60 61 61 59 58 56 54 52 51 52 51 51 53 55 54 52 53 55 54 53 53 52 51 50 50 50 50 48 46 46 46 47 49 49 47 45 43 41 39 35 35 37 37 36 39 43 45 46 48 50 51 51 51 51 49 47 45 45 46 46 46 46 45 45 45 45 44 42 41 40 39 38
67 70 68 66 66 64 65 67 68 66 62 63 64 61 62 66 64 61 59 57 53 51 51 49 49 49 50 53 55 53 54 57 57 55 54 54 53 51 51 52 51 46 42 42 46 49 51 50 49 48 46 44 41 37 36 38 39 39 41 43 45 46 47 47 49 49 50 49 47 46 46 47 47 47 47 46 45 44 44 43 42 41 40 39 38 37
70 70 67 66 67 65 67 68 67 65 62 63 65 65 66 66 63 60 58 55 51 51 50 47 48 50 50 52 52 52 55 58 58 57 56 55 54 53 53 53 50 45 44 48 52 54 53 52 49 47 45 43 41 39 38 39 40 40 39 38 39 40 42 44 46 47 47 47 47 46 47 47 46 46 45 43 42 42 41 40 40 39 39 38 38 38
70 69 66 66 66 66 69 68 64 62 61 64 67 67 64 63 62 61 58 54 51 52 51 49 48 50 51 50 50 52 55 58 59 58 57 57 56 55 55 53 49 47 51 55 55 54 52 49 45 42 42 41 41 40 40 40 41 42 41 39 39 39 41 44 45 45 46 47 47 46 46 45 44 43 42 40 40 39 39 39 38 39 39 39 39 39
70 68 66 66 66 67 67 63 59 59 62 65 66 64 62 62 62 60 56 54 52 53 53 51 49 50 50 49 49 50 54 58 60 59 58 57 57 55 55 54 52 53 56 56 53 51 49 46 44 42 41 40 38 39 40 42 43 43 43 43 42 41 41 42 43 43 44 46 46 46 44 42 41 40 39 38 38 38 38 38 39 40 40 41 41 41
69 66 64 65 65 65 63 59 59 61 64 66 66 63 61 60 59 57 55 55 55 55 54 52 51 51 51 48 47 50 52 56 60 60 58 57 56 55 54 54 56 57 58 56 52 50 48 47 46 42 40 40 39 40 42 44 44 44 44 43 43 43 43 43 43 43 43 43 44 44 42 41 39 38 37 37 37 37 38 39 40 41 42 43 43 44
67 64 63 65 65 65 64 63 62 64 65 66 66 66 64 62 58 56 56 57 58 57 56 54 53 53 52 49 48 49 50 54 57 57 57 54 53 56 57 57 58 59 58 55 51 49 48 47 45 42 42 43 44 45 45 45 46 46 45 45 44 45 44 43 42 41 40 40 41 41 41 39 39 37 37 37 38 39 40 41 42 43 43 44 45 47
67 64 65 67 67 67 67 65 65 66 66 64 66 68 66 61 59 58 59 60 60 59 56 54 52 50 51 50 49 49 50 52 54 55 55 52 50 55 60 60 59 58 57 55 53 51 49 47 45 43 44 46 47 48 47 47 47 47 47 46 43 44 44 43 42 41 40 40 40 38 37 37 37 38 38 39 40 41 42 43 44 45 46 46 48 49
64 63 65 68 67 66 65 64 63 62 60 60 64 67 63 60 61 61 62 62 61 59 57 55 53 52 52 52 51 51 50 50 52 55 55 52 52 56 60 61 60 59 57 56 55 54 50 47 46 44 44 47 49 50 49 48 46 44 43 43 42 41 41 42 43 41 39 39 39 38 37 37 38 39 40 41 42 44 45 46 46 48 49 50 51 52
63 63 66 66 63 61 60 57 55 54 54 59 64 66 63 62 62 61 61 61 60 58 57 56 56 54 53 53 53 53 52 51 53 53 53 54 57 58 59 60 60 59 58 58 57 54 51 49 47 45 45 47 50 51 51 48 44 41 39 40 42 41 41 42 42 41 40 40 40 40 41 42 43 43 45 46 46 47 47 47 48 50 52 53 54 55
63 64 65 64 62 62 60 57 56 57 59 61 64 64 62 61 61 59 59 60 59 58 57 58 58 56 53 52 53 55 55 55 55 54 53 57 59 59 58 59 59 59 60 59 56 54 52 49 48 47 47 48 51 52 50 46 42 40 38 39 42 42 41 42 40 41 44 45 44 44 46 47 47 48 48 49 49 49 48 49 50 51 52 54 55 57
63 63 63 63 63 64 62 60 61 62 62 62 63 63 62 62 60 58 57 57 58 57 57 58 60 59 56 53 53 55 55 57 58 57 57 58 59 59 59 58 59 60 60 58 56 54 51 48 47 48 49 51 53 54 51 46 41 38 37 38 41 42 42 43 42 43 46 46 45 45 46 46 46 48 49 50 49 49 48 48 49 51 52 53 55 56
62 60 61 62 63 61 59 60 63 63 64 64 63 62 62 61 58 55 55 56 55 53 56 59 60 59 57 56 55 53 52 55 59 59 58 58 58 59 59 59 59 59 59 58 56 53 50 49 48 49 51 53 55 56 55 51 45 41 39 39 41 42 44 45 45 46 47 47 47 47 47 47 48 49 48 46 45 46 47 48 50 51 52 54 55 57
59 59 61 62 61 60 60 63 64 63 64 64 62 61 61 59 56 54 55 54 52 51 56 58 58 57 57 57 56 52 49 52 57 59 59 58 58 59 60 59 59 58 58 57 55 52 51 48 47 50 53 54 56 56 56 55 51 46 43 41 41 43 45 47 47 48 50 51 51 51 50 50 49 46 44 43 44 47 49 51 53 54 55 57 59 62
58 59 60 60 61 61 61 61 61 60 61 63 63 63 63 61 59 57 55 54 53 54 57 57 55 55 56 55 54 54 54 54 55 57 58 59 59 59 60 59 59 58 56 55 53 52 49 46 47 51 53 55 56 57 57 56 54 51 48 46 45 45 46 47 48 49 50 50 51 52 52 51 48 46 46 47 49 51 53 55 57 58 60 62 64 66
58 58 58 60 59 58 58 59 60 61 63 63 63 63 63 61 59 57 55 55 55 56 57 55 54 54 54 53 53 55 56 56 55 55 56 57 58 58 59 60 59 56 55 54 53 51 48 47 49 51 52 54 56 57 58 57 55 53 52 50 50 49 49 50 50 51 51 51 51 51 52 52 51 52 53 53 54 56 58 60 61 62 65 67 68 70
57 57 58 58 57 57 58 60 61 63 63 62 61 61 60 59 58 57 55 55 54 53 53 53 54 55 54 53 54 56 56 56 56 55 54 55 56 57 59 59 58 55 54 54 52 50 50 51 51 50 50 53 55 57 60 60 56 53 51 50 50 50 49 50 51 52 52 52 52 52 52 52 53 54 56 57 58 60 61 63 64 66 68 69 70 71
56 56 57 57 57 59 61 62 63 63 61 59 58 58 58 58 58 57 55 55 53 52 52 53 55 56 55 53 54 56 56 56 56 55 54 53 54 56 57 57 56 55 54 53 51 49 50 52 51 51 51 51 52 55 59 59 57 54 50 48 47 48 48 49 50 51 52 52 53 54 54 55 56 58 60 62 64 65 66 67 69 70 71 71 72 72
56 56 56 57 58 62 63 63 63 61 58 57 57 58 58 59 58 57 55 55 53 51 52 53 54 54 54 55 56 56 56 55 54 53 54 53 53 54 55 56 56 56 55 53 52 51 51 51 50 50 51 50 50 52 52 52 52 52 50 49 49 49 50 51 53 54 55 56 58 59 60 61 63 64 66 67 68 69 70 71 72 72 72 72 72 72
55 55 55 57 60 63 63 62 60 57 56 56 57 57 58 58 58 57 56 54 51 50 52 54 54 53 53 55 56 55 55 55 53 53 53 53 52 53 54 56 56 56 55 53 52 52 53 54 52 51 52 53 53 53 52 51 50 48 48 50 52 54 55 55 54 54 56 58 60 61 63 64 65 66 67 68 69 70 71 72 72 72 72 71 71 71
54 53 54 57 59 61 61 60 58 57 57 57 57 58 58 58 58 58 57 56 54 54 55 54 54 54 53 53 53 53 53 54 53 53 52 53 53 53 54 55 54 54 54 53 53 54 55 56 57 57 56 55 55 55 55 55 54 52 51 51 53 55 57 57 56 56 57 58 60 61 63 64 65 66 67 69 70 70 71 71 70 70 70 70 71 71
53 52 54 56 58 61 62 62 60 58 58 58 58 59 58 58 59 59 59 58 56 55 55 54 53 53 51 51 52 52 52 53 53 53 53 53 53 53 53 54 53 54 55 55 55 58 58 56 56 59 60 60 59 59 58 58 58 58 57 56 57 58 59 60 61 60 60 61 62 64 65 66 67 69 70 70 70 69 69 69 69 70 70 71 72 72
53 54 55 56 58 61 63 62 61 60 59 58 59 60 59 59 60 60 59 58 56 54 54 54 54 52 51 51 52 52 52 53 54 54 54 53 53 52 52 52 53 54 57 58 59 60 60 57 55 57 60 62 63 63 63 61 61 61 61 61 61 62 62 63 63 63 64 65 66 67 69 70 71 72 72 71 69 68 69 70 70 71 72 73 73 74
53 54 53 53 56 59 61 62 62 61 60 59 60 60 60 59 60 60 59 57 56 56 56 55 54 53 52 51 52 52 53 54 54 54 53 51 51 51 52 52 52 53 56 59 61 60 59 59 58 58 60 62 64 65 65 65 64 64 63 63 63 63 63 64 65 66 67 68 69 70 71 72 72 71 70 70 69 68 70 72 72 73 74 74 75 75
52 52 51 52 54 57 59 61 62 61 60 61 61 60 60 59 59 58 57 57 57 58 58 56 55 54 52 52 53 54 54 53 53 53 52 50 49 50 52 52 52 52 54 57 59 59 59 59 60 61 62 62 63 64 64 65 66 67 66 65 65 65 65 66 67 67 68 69 70 70 71 70 70 68 67 67 68 69 70 72 74 75 75 75 75 73
51 52 52 52 53 54 57 60 60 61 62 61 61 60 60 59 57 57 57 58 59 60 59 56 55 53 53 54 55 54 53 52 52 52 51 49 48 50 51 52 52 52 53 55 57 58 59 60 62 63 63 63 63 63 64 64 65 66 67 67 67 67 67 67 67 67 67 68 68 68 67 66 65 64 64 65 67 69 71 72 74 76 76 75 72 69
50 52 53 53 53 53 54 56 57 58 59 60 60 60 60 59 59 59 59 60 60 60 58 56 55 54 55 55 55 54 53 53 53 52 51 50 48 48 50 53 54 54 55 56 56 58 59 61 62 62 63 63 63 63 64 64 64 64 65 66 67 67 67 66 65 65 65 65 65 64 63 62 62 62 64 65 67 70 72 74 75 75 74 72 68 65
48 50 51 53 54 54 54 53 53 54 55 57 59 60 61 61 62 62 62 60 60 59 57 56 56 56 55 55 55 55 55 55 54 52 51 50 49 48 50 53 54 55 56 57 58 59 60 61 62 62 62 62 62 62 63 64 64 64 64 65 65 64 64 64 64 64 64 64 62 61 60 60 61 63 65 67 69 71 73 75 75 74 71 68 65 62
45 47 49 51 53 53 53 53 53 54 55 57 59 60 61 61 62 63 62 60 59 58 57 56 57 56 54 54 55 57 57 56 55 53 52 50 49 49 50 53 55 56 57 57 59 60 61 62 62 62 62 62 62 63 63 64 64 65 65 65 65 64 63 63 63 64 63 62 61 60 60 61 62 64 66 68 70 72 74 73 72 69 66 64 62 62
43 46 48 50 50 51 52 53 55 56 57 58 59 60 61 60 61 62 62 60 59 58 56 56 56 56 54 54 56 58 58 57 55 54 52 51 50 49 50 52 55 57 58 58 60 62 63 63 63 62 63 63 63 64 65 65 65 66 66 65 64 64 63 63 63 62 60 59 59 60 61 62 64 66 68 70 72 73 72 70 67 64 62 61 61 62
41 43 46 47 48 50 51 53 56 57 57 58 59 60 61 61 62 62 62 60 59 57 55 55 55 55 55 56 57 58 58 57 55 53 52 51 50 50 50 51 54 56 58 60 62 63 63 63 63 63 64 64 65 66 66 66 67 67 66 65 64 63 62 61 60 59 58 58 59 61 63 64 66 67 69 71 71 70 67 65 62 61 60 60 61 63
39 41 43 44 45 46 48 50 53 55 55 57 58 59 60 61 61 62 62 62 60 57 55 53 52 52 54 55 57 57 57 56 54 53 52 51 50 50 51 52 53 54 56 60 63 63 63 63 64 65 65 65 66 67 67 67 67 66 65 63 62 61 60 59 58 58 58 59 61 63 64 66 67 69 69 69 67 65 62 61 60 60 61 62 63 64
39 40 41 42 42 43 44 47 48 49 50 54 56 58 59 60 60 60 60 61 61 60 58 56 54 53 53 54 55 56 56 55 54 53 52 52 51 51 52 52 53 54 56 58 60 60 61 62 63 63 64 65 65 65 65 65 64 63 62 60 59 58 57 57 57 57 59 60 62 64 66 67 67 67 65 63 60 59 58 58 59 60 61 62 64 65
38 39 41 42 42 43 44 44 43 44 47 51 53 54 56 56 56 56 57 57 57 58 58 58 58 57 56 56 56 56 55 55 54 53 52 52 52 53 53 53 53 54 56 57 57 57 57 58 59 60 60 61 61 61 61 60 59 58 57 56 56 56 56 56 57 58 60 61 63 65 65 65 63 61 59 57 56 56 57 58 58 59 60 60 60 61
37 39 39 40 42 44 44 43 41 41 45 49 51 51 51 52 52 53 53 54 54 55 56 57 57 57 57 57 57 56 55 55 54 53 52 53 53 53 53 53 54 55 55 55 55 55 55 56 56 56 56 56 56 55 55 54 54 53 53 53 53 54 55 56 57 59 61 62 63 63 62 59 57 56 55 55 56 56 56 56 56 56 56 56 56 57
Wind_Direction
238 239 240 241 241 240 238 235 234 231 230 230 228 229 230 229 231 231 228 227 228 228 229 231 232 234 234 232 233 235 234 233 226 215 230 241 239 239 244 246 249 251 252 252 252 252 252 250 249 249 250 250 250 252 253 255 258 263 269 274 280 287 291 296 302 305 304 304 306 306 304 301 298 295 294 292 291 289 289 289 288 288 288 288 289 289
236 237 238 239 238 236 235 233 232 231 230 230 228 230 232 230 231 232 227 226 228 227 228 230 231 232 232 231 232 234 232 231 225 213 217 230 231 232 238 240 242 245 247 249 250 252 252 250 250 251 252 253 252 252 253 255 256 257 260 266 277 288 296 306 315 312 306 304 304 300 295 292 289 289 289 290 291 289 288 289 289 290 290 290 290 290
235 237 237 237 237 235 235 234 232 231 230 229 228 229 230 228 231 232 226 225 229 227 227 229 230 231 231 230 232 233 231 228 226 215 211 216 219 225 230 233 239 243 248 250 250 251 251 252 253 253 254 254 252 251 252 254 255 254 254 257 265 278 296 312 311 294 288 284 277 274 272 273 277 281 284 287 288 286 285 288 289 289 290 291 291 291
233 234 234 235 236 235 235 234 233 232 230 228 227 228 229 227 229 231 225 224 229 228 226 227 229 230 230 231 232 232 230 226 224 215 213 217 217 222 225 227 233 239 246 252 252 251 251 252 254 253 252 252 252 252 251 252 253 252 252 251 254 268 291 298 279 268 270 266 260 260 259 258 265 275 283 286 286 286 286 287 286 288 290 290 290 291
230 230 230 231 232 233 233 233 233 233 231 228 227 227 228 227 229 230 223 222 227 227 225 225 228 229 228 228 229 229 228 224 219 211 213 220 219 221 225 226 229 232 237 244 248 248 248 250 253 253 251 250 250 250 249 248 249 250 250 248 248 258 270 268 264 263 264 263 262 265 261 258 264 269 273 278 282 285 284 281 284 288 289 289 290 291
229 229 229 229 230 230 230 231 233 232 229 227 227 228 229 228 229 229 223 223 227 227 225 224 227 228 225 225 225 226 225 220 216 211 213 222 224 224 226 227 228 232 234 238 244 248 248 250 252 252 251 249 248 247 246 246 245 245 246 245 240 234 237 251 258 260 263 265 267 270 266 265 271 268 266 272 278 278 277 279 285 288 288 288 289 290
228 228 229 230 231 231 230 230 231 229 227 227 227 228 229 229 230 228 225 225 227 227 225 222 226 227 224 223 224 224 223 218 215 211 211 220 227 228 229 229 230 232 234 237 244 249 250 251 251 250 249 249 247 245 245 245 244 244 243 242 234 224 228 245 257 262 266 268 269 270 270 273 275 268 264 270 272 272 276 282 286 287 288 289 289 290
229 228 228 229 231 232 232 231 230 227 226 226 226 227 229 229 230 228 226 226 227 227 224 221 225 226 222 223 223 222 222 217 214 213 210 214 225 231 232 230 231 233 235 236 241 245 248 251 250 250 251 250 249 247 246 246 246 245 243 242 236 225 226 242 256 262 263 263 260 262 272 280 278 264 260 264 268 273 279 283 286 288 289 289 289 289
228 228 228 229 230 231 231 231 230 228 227 226 225 226 227 228 229 227 224 225 226 226 223 221 225 224 221 223 223 220 220 217 214 214 213 214 222 230 231 230 231 232 235 238 241 243 246 248 249 249 250 251 250 250 248 247 247 245 244 242 236 226 226 236 245 246 248 252 251 257 269 271 256 248 255 262 270 277 282 285 288 289 288 288 288 289
227 227 226 227 228 228 228 228 230 230 229 227 225 225 226 226 227 226 224 224 226 225 222 222 225 224 221 223 222 219 217 216 213 214 215 217 221 226 229 230 230 229 234 241 243 243 243 244 246 247 248 249 250 249 248 248 247 245 243 239 234 229 228 235 243 239 233 240 251 258 258 241 235 246 258 268 276 281 284 286 288 288 288 288 288 288
228 226 224 225 226 227 227 227 228 228 229 229 225 225 226 226 227 226 224 226 227 226 223 223 225 224 221 222 221 219 216 215 214 213 215 217 221 226 227 229 231 230 235 244 244 244 245 246 248 248 247 248 249 248 247 247 247 246 244 238 234 234 233 237 244 238 232 242 251 246 233 231 242 254 265 274 280 283 285 286 286 287 287 287 287 287
228 227 224 224 225 226 227 227 227 226 228 230 225 224 225 225 227 226 225 227 228 226 225 225 225 224 222 221 221 221 217 217 218 216 216 217 220 224 227 231 234 230 231 239 243 246 248 248 248 248 247 246 246 245 244 244 245 246 245 241 238 240 237 235 237 235 236 242 240 232 235 246 256 265 273 279 281 283 284 285 286 286 286 287 287 287
229 227 224 225 226 226 227 227 227 227 229 230 224 223 224 224 226 226 226 228 227 225 225 225 226 225 224 222 222 222 219 219 221 221 220 219 218 219 223 231 234 227 225 234 242 246 247 247 247 246 245 244 243 242 241 243 245 243 242 240 239 241 238 233 232 233 233 233 233 239 251 262 270 275 278 280 281 282 283 284 285 286 287 287 287 288
228 227 225 226 228 228 228 228 228 230 233 231 225 224 226 226 227 227 228 228 226 225 225 226 226 225 224 223 223 223 221 222 224 224 223 221 219 217 217 225 230 227 225 232 240 244 244 244 244 243 242 240 239 238 241 246 247 243 239 233 231 235 233 227 228 229 231 236 243 254 264 270 274 275 276 278 281 283 284 285 286 287 287 288 288 289
226 227 227 229 229 229 230 230 228 229 231 228 223 224 225 226 226 226 227 226 225 225 224 226 226 224 224 225 223 223 224 225 225 225 224 223 222 218 215 221 228 228 229 233 239 242 242 241 240 239 238 236 235 233 235 242 247 246 239 229 229 234 229 223 227 234 240 248 256 263 268 270 271 272 275 279 281 283 285 287 287 287 287 288 289 290
224 224 225 226 227 227 228 229 227 227 227 223 221 223 223 224 224 223 224 224 223 224 224 226 227 224 224 226 225 223 226 228 226 227 227 225 224 222 219 222 225 227 231 236 240 241 241 240 238 237 236 235 233 227 224 227 233 239 238 230 230 234 231 231 238 246 253 259 263 266 267 268 270 273 276 278 281 283 284 285 286 286 286 287 289 290
225 225 224 224 224 224 224 225 225 227 228 223 222 223 223 223 222 222 223 223 223 224 224 226 227 225 224 225 224 221 223 228 227 226 227 227 225 224 223 224 224 224 229 236 240 241 241 240 238 237 237 236 233 229 225 221 219 225 232 230 229 232 235 240 248 255 259 263 265 266 266 268 271 273 275 277 280 281 282 283 283 284 285 286 288 289
224 226 225 224 223 223 222 223 224 225 225 223 222 223 221 221 220 220 223 223 223 224 224 224 227 226 224 225 224 221 223 227 227 226 227 227 227 226 226 226 225 223 224 231 237 238 238 238 237 236 236 236 236 234 231 227 222 223 231 234 235 237 240 245 251 255 258 261 262 263 266 270 272 274 276 277 278 279 280 281 282 283 285 287 288 289
223 225 224 223 223 222 222 223 223 224 224 222 221 220 220 221 221 220 222 223 223 225 225 223 226 226 223 223 224 221 222 227 228 227 227 228 228 227 227 227 226 223 222 225 230 232 234 235 235 235 235 237 238 235 233 233 232 231 235 238 240 242 244 246 249 252 255 257 258 261 266 269 271 274 276 277 278 278 279 280 282 284 286 287 288 289
225 225 224 223 223 222 222 223 222 223 223 222 221 220 219 220 221 220 221 221 222 225 225 222 225 227 224 223 223 222 223 227 228 228 227 228 229 230 230 228 225 224 225 226 228 230 232 234 234 235 236 236 237 235 234 236 238 237 239 241 242 244 246 247 249 252 255 256 258 261 265 268 271 274 276 277 277 277 278 280 283 285 286 288 290 292
225 225 224 223 222 222 224 224 223 223 222 222 222 221 220 221 222 221 221 222 223 224 225 223 224 227 226 223 222 222 223 227 229 229 228 229 230 231 232 231 227 226 227 228 229 230 232 232 232 232 234 234 234 234 234 236 238 238 240 243 246 249 251 251 253 255 257 259 261 263 265 268 272 274 276 276 276 276 278 280 283 285 286 288 290 292
226 226 224 224 223 223 224 223 222 222 221 220 219 219 219 221 222 221 221 222 223 224 224 222 222 225 226 223 221 222 224 226 229 230 229 230 231 232 233 233 230 230 231 230 230 230 231 231 231 230 230 231 231 232 232 233 235 237 242 246 249 252 253 253 255 258 260 261 263 264 267 269 272 274 275 276 277 278 280 282 283 284 285 286 288 290
225 224 223 223 222 221 222 221 220 220 220 219 217 215 216 217 218 219 220 222 223 224 225 224 223 224 225 223 222 223 224 226 229 230 229 229 230 231 233 234 233 233 234 232 231 230 231 232 232 229 228 229 230 230 231 232 232 237 244 249 253 254 253 253 255 258 260 261 262 264 266 268 270 273 276 278 281 282 284 285 285 285 285 286 288 290
223 221 220 221 220 219 219 219 218 219 219 217 216 216 216 215 215 216 218 221 223 224 226 227 226 225 226 225 224 224 225 226 228 229 228 228 229 230 232 234 235 235 235 235 233 232 231 232 232 230 229 230 230 230 230 231 233 239 246 252 255 254 251 251 253 255 258 259 260 262 263 267 272 276 279 281 283 285 287 288 287 287 286 287 288 289
222 220 220 221 220 220 220 220 220 221 220 217 217 219 218 216 215 215 217 219 221 222 224 226 227 226 226 225 223 225 226 226 227 229 228 229 229 230 231 234 235 236 236 236 235 233 231 232 232 230 230 232 232 232 233 235 238 244 250 253 253 251 249 249 251 253 256 258 260 263 267 272 276 279 281 283 285 288 290 289 288 287 287 288 289 290
220 218 219 220 220 221 223 224 225 226 222 218 217 218 217 216 216 216 217 219 221 222 222 224 225 225 225 225 225 225 226 226 227 228 228 230 231 231 231 233 235 236 236 236 236 235 232 231 231 230 230 233 236 237 239 242 246 250 253 253 251 249 247 248 250 253 255 258 261 265 269 273 277 280 283 285 288 290 290 288 287 287 288 289 289 291
218 216 217 218 217 218 219 219 220 219 217 216 217 218 217 216 217 217 218 220 221 221 222 223 225 225 224 225 226 226 225 226 226 226 226 228 231 231 230 231 233 235 236 235 236 236 234 232 231 231 231 234 238 240 243 245 248 251 254 254 251 248 246 246 248 252 256 260 264 267 271 276 279 283 285 288 289 289 288 288 288 288 289 289 291 292
217 216 216 217 217 217 216 215 214 213 212 214 216 216 216 217 218 217 218 221 221 222 222 224 225 226 224 224 226 227 227 227 227 226 225 227 230 231 231 230 231 233 236 236 236 236 235 233 232 232 232 234 237 241 244 245 245 247 251 252 250 247 245 245 247 251 259 264 268 272 277 280 282 284 286 287 286 286 286 286 287 288 289 289 291 292
215 215 215 216 217 218 217 215 214 212 210 212 214 215 216 217 218 218 219 221 222 222 224 225 227 228 227 227 227 228 229 229 229 227 226 227 229 231 231 231 231 233 235 236 237 236 236 235 234 234 234 235 238 241 245 248 247 246 249 252 252 250 247 246 248 252 258 263 267 273 278 280 281 283 283 283 282 283 285 285 286 287 287 288 290 291
214 213 215 216 217 217 216 215 214 212 211 211 212 213 215 215 216 217 219 222 222 222 225 227 227 229 229 229 229 228 228 230 230 229 228 228 229 231 232 232 232 232 234 236 237 237 236 236 235 236 237 238 240 243 247 250 250 250 251 252 253 252 250 250 252 254 257 260 265 271 276 278 279 279 278 278 280 282 283 284 285 285 286 288 289 290
213 213 215 216 216 216 216 215 214 212 212 212 212 212 213 213 213 214 216 218 219 220 224 226 227 229 231 232 232 231 232 233 233 232 230 229 229 231 232 233 232 232 233 235 237 237 238 237 236 238 239 240 242 245 248 250 251 253 254 254 254 254 253 253 255 258 261 263 266 270 273 274 273 271 271 273 276 278 280 282 283 284 285 287 288 290
213 212 213 216 216 216 215 213 211 210 212 213 212 213 214 214 214 214 215 217 218 219 222 224 224 227 230 231 233 232 233 235 235 234 233 231 231 232 233 233 233 232 233 234 235 236 236 236 236 238 240 241 243 246 249 250 252 254 255 256 256 255 255 256 258 261 264 265 267 269 271 271 271 271 271 273 274 276 279 280 281 282 284 285 287 289
213 212 212 214 214 213 211 211 211 211 212 212 213 214 216 216 216 217 217 219 220 221 223 224 224 225 225 227 230 231 231 232 233 233 233 233 232 232 233 234 234 233 232 233 234 234 234 235 236 236 238 241 244 247 249 251 251 253 255 256 257 258 258 259 261 263 265 265 267 269 270 270 271 271 272 273 275 276 278 279 281 282 284 286 288 290
211 210 210 211 210 209 209 209 211 211 211 212 213 215 217 218 219 219 220 221 221 221 223 225 225 226 226 226 229 231 231 231 232 233 234 233 233 233 234 235 235 234 233 232 232 232 233 234 236 237 239 243 245 248 250 252 252 253 255 256 258 260 261 262 263 265 265 265 265 267 268 268 269 271 273 275 276 278 279 281 282 284 285 287 289 291
210 209 209 208 206 207 208 209 211 211 210 212 214 215 216 217 219 220 221 222 223 223 224 226 227 228 229 229 231 233 234 234 235 235 235 234 233 232 233 234 234 234 233 231 231 231 232 233 234 236 238 239 241 245 249 251 252 253 253 254 255 257 259 262 263 264 264 264 265 267 268 269 271 273 276 277 279 280 282 283 284 285 287 289 291 292
208 208 206 205 205 206 208 209 210 210 210 212 214 216 218 218 219 220 220 222 223 224 225 226 228 228 229 231 232 234 236 237 237 237 237 236 234 232 232 232 233 233 232 232 232 232 232 231 230 230 232 235 238 242 245 247 249 251 250 250 251 253 256 259 262 263 264 265 267 268 270 272 273 275 278 279 281 282 283 284 285 286 288 290 292 294
208 207 205 205 205 206 208 209 209 209 210 212 214 216 218 219 220 221 221 221 221 221 223 225 227 228 230 232 234 236 237 239 239 238 237 236 234 232 231 231 231 231 231 231 232 232 232 232 231 230 231 234 237 241 244 246 247 249 249 249 249 250 253 256 259 262 264 265 267 269 271 273 275 277 279 280 282 282 283 284 286 288 290 291 293 294
206 206 206 204 204 206 208 208 208 208 209 211 213 216 217 218 220 221 221 222 221 222 223 225 227 229 230 232 234 236 237 239 240 239 238 237 235 233 231 231 230 229 229 229 231 233 233 234 234 233 233 234 236 240 243 246 247 248 250 251 252 252 254 256 259 262 264 266 268 270 272 274 276 278 280 281 282 283 284 286 288 289 291 292 293 295
204 206 206 205 205 207 208 208 209 209 209 211 213 216 217 218 220 221 221 222 223 224 225 226 228 229 230 231 233 234 235 237 238 239 238 237 235 233 231 230 230 229 228 228 230 233 234 234 235 236 237 237 238 240 243 245 247 249 250 252 254 256 257 259 261 263 266 268 270 272 274 276 278 280 281 282 282 283 285 287 288 290 291 293 294 296
204 206 207 206 207 208 209 209 210 210 210 212 214 216 217 219 220 221 222 222 223 225 226 227 228 229 230 231 233 234 234 235 237 238 238 237 236 234 232 230 230 230 230 230 232 234 235 236 237 238 239 240 241 241 242 244 246 249 251 253 255 258 260 262 263 265 267 269 272 274 276 278 280 281 281 282 282 284 286 288 290 291 293 295 296 297
203 205 207 208 209 210 210 211 211 211 212 214 215 216 218 220 222 223 223 224 225 226 227 227 228 230 231 232 233 233 234 235 236 238 239 238 237 234 232 230 230 230 231 232 234 235 236 237 238 238 240 242 243 244 245 245 247 249 252 254 256 258 260 262 264 266 268 271 273 275 277 279 280 280 281 282 283 285 287 289 291 293 294 296 297 297
203 205 207 208 210 211 212 212 212 212 213 215 217 218 219 220 222 223 224 225 226 227 228 229 230 231 231 233 234 234 235 236 236 237 238 237 235 234 232 230 229 230 232 233 235 236 237 238 239 240 241 243 245 246 248 249 250 251 253 255 257 259 261 263 265 268 270 272 274 276 277 278 279 279 280 281 283 286 288 290 292 294 295 295 296 295
205 206 207 209 210 212 213 214 213 214 215 216 218 220 220 221 222 223 223 225 226 228 229 230 231 232 232 233 235 235 236 236 236 237 237 237 236 233 231 230 229 229 231 233 235 237 238 239 241 242 244 245 246 248 250 251 253 254 255 257 258 260 262 264 266 269 271 273 275 276 277 277 278 279 280 282 284 286 288 290 291 292 293 293 293 293
208 209 210 211 212 212 213 214 214 215 216 218 220 221 221 222 223 223 223 224 226 228 229 230 231 232 232 233 234 234 235 235 236 236 237 237 236 234 231 229 228 230 232 233 235 237 238 240 242 243 245 246 248 249 251 253 254 256 257 258 260 261 263 265 268 270 272 274 275 276 276 277 277 278 280 282 284 286 288 289 290 291 291 291 292 292
208 210 212 214 215 215 215 215 215 214 215 217 219 221 221 222 224 225 225 225 227 229 229 230 231 233 233 234 234 235 235 236 237 237 237 236 235 234 232 229 228 229 232 234 236 237 239 240 242 244 246 247 249 250 252 253 254 256 257 258 260 262 264 267 269 272 273 274 274 275 275 276 277 278 280 282 284 286 287 288 289 289 289 290 291 292
210 212 215 216 217 217 217 217 217 217 216 217 219 221 221 222 224 226 226 226 227 228 229 230 232 233 232 232 234 235 236 237 237 238 238 237 236 235 233 231 230 230 232 234 236 237 239 240 242 244 246 248 249 250 251 253 254 256 257 258 260 262 265 268 270 272 272 273 273 274 275 276 277 278 280 282 284 285 286 286 286 287 288 289 290 291
213 216 218 220 220 219 219 220 221 220 220 220 221 222 223 223 224 226 227 227 227 228 228 229 232 233 232 231 233 234 235 237 237 238 239 238 237 236 234 233 232 232 233 235 237 238 240 241 243 245 246 248 249 250 252 253 254 256 257 259 261 263 265 268 270 271 272 272 273 274 275 276 278 279 281 283 283 284 284 284 284 284 285 286 286 286
214 217 219 222 223 222 222 224 224 224 223 224 225 226 226 227 227 227 228 229 229 229 228 228 229 231 231 231 232 233 235 236 237 238 239 239 238 237 235 234 234 235 235 237 238 240 242 243 244 246 247 249 250 252 253 254 256 257 259 260 261 263 266 268 269 270 271 272 273 274 276 277 279 281 282 282 282 282 282 282 282 282 283 283 284 285
214 216 218 220 222 223 223 224 226 226 226 227 227 228 229 230 230 230 230 231 231 231 230 229 229 229 229 230 232 233 234 236 236 237 238 238 238 238 237 236 236 236 238 239 241 242 244 245 247 248 250 251 253 254 255 257 258 259 260 260 262 264 266 268 268 270 271 273 274 276 278 280 281 282 282 282 281 281 281 282 282 283 283 284 285 286
217 219 220 220 222 223 223 223 225 226 227 227 227 228 228 229 230 230 231 231 232 232 232 231 231 230 230 231 232 233 234 236 236 237 237 237 237 238 237 237 237 238 240 241 243 245 246 247 249 250 252 253 255 256 257 258 258 259 259 260 262 265 267 268 269 271 272 274 276 278 280 281 281 281 281 281 281 282 282 283 283 284 285 285 286 287
220 221 223 222 222 224 224 222 221 223 225 225 226 227 227 228 229 229 229 229 230 231 231 231 231 230 230 231 232 233 234 235 236 236 236 236 237 237 237 237 238 239 241 243 245 246 248 249 251 252 254 255 256 257 257 258 258 258 259 261 263 265 267 268 270 272 274 276 278 280 280 280 280 280 281 282 283 283 284 284 285 285 286 287 288 289
Height
10577 10581 10589 10597 10600 10601 10602 10604 10606 10608 10610 10614 10620 10623 10625 10632 10636 10635 10641 10649 10653 10658 10662 10664 10667 10670 10677 10683 10682 10688 10698 10705 10716 10727 10729 10729 10737 10746 10745 10740 10734 10733 10733 10727 10726 10728 10729 10733 10734 10734 10737 10741 10745 10748 10749 10752 10755 10757 10759 10761 10764 10766 10768 10768 10769 10768 10769 10770 10771 10772 10771 10771 10770 10765 10763 10764 10765 10763 10760 10758 10757 10756 10755 10755 10753 10753
10571 10579 10589 10591 10591 10593 10594 10596 10599 10601 10605 10609 10616 10620 10622 10629 10629 10627 10638 10647 10648 10653 10657 10659 10663 10666 10673 10677 10679 10686 10695 10703 10712 10721 10725 10728 10736 10740 10735 10731 10729 10728 10727 10724 10724 10725 10725 10727 10729 10731 10733 10738 10743 10744 10746 10749 10751 10754 10756 10759 10762 10765 10766 10766 10766 10765 10766 10768 10770 10772 10772 10772 10770 10764 10760 10761 10761 10760 10756 10755 10754 10752 10751 10751 10749 10748
10570 10578 10583 10582 10583 10586 10587 10591 10593 10595 10600 10605 10612 10615 10616 10622 10620 10621 10635 10644 10643 10648 10653 10655 10659 10662 10668 10673 10676 10684 10692 10699 10707 10714 10721 10727 10729 10724 10720 10721 10720 10720 10720 10719 10721 10721 10720 10722 10724 10727 10731 10735 10738 10741 10743 10745 10747 10750 10753 10757 10760 10763 10765 10766 10764 10762 10762 10765 10767 10768 10769 10770 10768 10762 10757 10758 10759 10758 10755 10752 10750 10749 10748 10746 10745 10744
10567 10572 10574 10573 10575 10578 10582 10587 10587 10589 10596 10602 10606 10608 10608 10613 10613 10617 10633 10640 10639 10643 10647 10650 10655 10659 10665 10670 10674 10681 10688 10695 10702 10711 10717 10717 10713 10708 10708 10710 10708 10713 10715 10715 10720 10719 10714 10717 10720 10725 10728 10730 10733 10736 10739 10741 10743 10746 10749 10754 10758 10762 10765 10763 10760 10756 10756 10758 10760 10762 10764 10764 10764 10762 10757 10754 10756 10755 10752 10749 10746 10744 10744 10742 10741 10740
10559 10561 10562 10564 10567 10572 10578 10580 10581 10587 10594 10597 10599 10599 10602 10607 10608 10614 10629 10634 10631 10635 10641 10647 10652 10655 10660 10666 10671 10677 10683 10690 10698 10705 10706 10704 10701 10701 10703 10705 10705 10710 10711 10712 10717 10714 10710 10713 10717 10722 10724 10726 10728 10731 10734 10736 10738 10741 10746 10751 10756 10762 10764 10757 10752 10751 10752 10755 10757 10759 10760 10759 10760 10761 10754 10749 10751 10751 10747 10745 10742 10741 10740 10739 10738 10737
10548 10550 10553 10557 10560 10567 10573 10574 10577 10585 10589 10589 10592 10594 10598 10602 10604 10611 10624 10628 10626 10631 10639 10645 10648 10649 10655 10661 10666 10672 10677 10685 10691 10695 10696 10693 10693 10694 10697 10700 10703 10706 10708 10709 10709 10707 10706 10710 10714 10718 10719 10721 10723 10725 10727 10729 10732 10736 10740 10747 10753 10756 10753 10746 10743 10746 10750 10754 10754 10753 10754 10755 10755 10754 10748 10746 10747 10745 10742 10740 10739 10737 10736 10735 10735 10733
10539 10544 10548 10552 10556 10563 10567 10569 10573 10580 10581 10583 10587 10591 10593 10597 10601 10610 10620 10623 10624 10627 10633 10640 10642 10644 10652 10658 10663 10668 10673 10680 10684 10687 10690 10688 10686 10688 10691 10695 10698 10701 10704 10704 10702 10703 10705 10708 10711 10713 10714 10716 10718 10720 10722 10724 10727 10731 10735 10742 10746 10746 10743 10741 10742 10745 10747 10750 10750 10747 10747 10748 10748 10746 10744 10743 10742 10739 10737 10736 10735 10734 10733 10732 10731 10729
10535 10538 10542 10546 10553 10559 10562 10565 10570 10574 10575 10578 10583 10584 10587 10593 10599 10608 10616 10618 10618 10620 10627 10635 10635 10639 10650 10656 10659 10664 10669 10674 10678 10680 10684 10684 10683 10684 10686 10690 10694 10696 10700 10700 10699 10701 10703 10705 10707 10708 10710 10711 10713 10715 10717 10720 10724 10727 10732 10737 10738 10740 10741 10742 10744 10745 10744 10744 10744 10743 10743 10743 10742 10741 10740 10739 10736 10734 10733 10732 10731 10730 10729 10728 10726 10725
10526 10529 10537 10543 10550 10555 10557 10560 10564 10567 10568 10572 10576 10578 10583 10590 10596 10602 10608 10610 10610 10613 10623 10630 10632 10639 10649 10651 10654 10660 10665 10670 10673 10674 10677 10679 10679 10679 10681 10686 10691 10695 10699 10699 10698 10698 10700 10702 10703 10704 10706 10706 10708 10710 10713 10717 10720 10722 10727 10730 10731 10735 10738 10738 10740 10741 10741 10740 10739 10739 10741 10741 10740 10738 10736 10733 10731 10730 10729 10728 10727 10725 10724 10723 10721 10720
10516 10524 10533 10539 10544 10547 10550 10553 10556 10562 10563 10565 10571 10575 10580 10587 10590 10595 10601 10603 10602 10609 10621 10628 10631 10638 10644 10646 10650 10657 10661 10665 10667 10668 10670 10672 10673 10674 10677 10681 10687 10692 10696 10697 10694 10693 10696 10698 10699 10700 10701 10702 10704 10706 10709 10713 10715 10717 10721 10723 10726 10729 10731 10732 10734 10736 10738 10737 10735 10736 10738 10737 10736 10732 10729 10728 10727 10725 10724 10723 10722 10721 10720 10718 10717 10715
10511 10520 10528 10533 10537 10538 10541 10546 10552 10558 10556 10558 10569 10574 10577 10581 10583 10590 10596 10596 10598 10610 10623 10626 10628 10633 10636 10641 10647 10653 10657 10659 10659 10661 10664 10667 10669 10670 10673 10677 10682 10687 10691 10692 10690 10689 10692 10693 10694 10696 10697 10698 10701 10703 10706 10709 10710 10712 10715 10718 10720 10722 10724 10726 10727 10730 10733 10732 10731 10731 10730 10729 10727 10725 10724 10723 10722 10721 10720 10719 10717 10716 10715 10713 10712 10711
10508 10517 10525 10527 10527 10529 10535 10541 10548 10552 10548 10555 10569 10570 10570 10575 10577 10585 10591 10591 10601 10615 10622 10620 10621 10625 10631 10639 10644 10647 10651 10653 10655 10657 10660 10663 10667 10669 10671 10673 10675 10681 10687 10687 10685 10685 10686 10688 10691 10693 10694 10696 10698 10700 10703 10705 10706 10708 10711 10713 10715 10717 10719 10720 10721 10724 10726 10725 10725 10723 10721 10721 10721 10720 10719 10718 10717 10716 10715 10714 10713 10711 10710 10709 10707 10706
10505 10513 10519 10516 10517 10525 10532 10537 10543 10544 10542 10556 10567 10563 10563 10570 10574 10582 10588 10594 10606 10613 10613 10613 10616 10622 10629 10637 10639 10641 10647 10651 10653 10654 10657 10660 10664 10668 10671 10671 10670 10677 10683 10683 10680 10681 10682 10685 10688 10689 10691 10693 10695 10697 10700 10702 10704 10705 10707 10709 10711 10713 10713 10715 10716 10718 10718 10718 10717 10716 10716 10716 10716 10715 10714 10713 10712 10711 10710 10709 10708 10707 10705 10704 10703 10702
10498 10506 10510 10509 10515 10525 10529 10533 10540 10542 10545 10558 10563 10558 10562 10569 10574 10583 10589 10596 10603 10604 10605 10608 10611 10618 10626 10629 10631 10637 10644 10647 10648 10650 10653 10657 10660 10666 10671 10670 10669 10674 10679 10679 10677 10678 10679 10682 10684 10686 10688 10690 10692 10695 10700 10702 10702 10703 10705 10707 10708 10709 10710 10711 10712 10712 10712 10711 10711 10711 10711 10711 10710 10710 10709 10708 10707 10706 10705 10705 10703 10702 10701 10699 10698 10697
10495 10502 10506 10508 10515 10522 10525 10532 10540 10539 10542 10555 10556 10552 10558 10565 10572 10581 10585 10590 10594 10596 10600 10601 10605 10615 10619 10621 10628 10637 10640 10640 10642 10645 10648 10653 10655 10661 10667 10668 10668 10671 10675 10675 10675 10675 10677 10678 10680 10682 10684 10685 10688 10694 10699 10701 10701 10701 10702 10703 10704 10705 10706 10706 10705 10705 10706 10706 10707 10707 10707 10706 10706 10705 10704 10704 10703 10702 10701 10700 10699 10698 10696 10695 10693 10692
10491 10494 10497 10501 10508 10515 10522 10529 10532 10529 10536 10547 10545 10545 10555 10562 10568 10574 10576 10582 10586 10589 10594 10597 10603 10611 10614 10618 10627 10634 10634 10633 10637 10640 10643 10647 10651 10656 10661 10662 10665 10669 10671 10672 10673 10674 10675 10674 10676 10679 10680 10681 10684 10690 10693 10695 10696 10697 10698 10699 10699 10699 10700 10700 10700 10700 10702 10702 10703 10703 10702 10702 10701 10700 10700 10699 10698 10697 10696 10695 10694 10693 10691 10690 10688 10687
10486 10485 10487 10495 10501 10509 10516 10520 10521 10523 10534 10540 10538 10546 10557 10559 10561 10567 10571 10577 10582 10586 10591 10595 10600 10605 10610 10614 10620 10626 10626 10626 10631 10635 10637 10641 10646 10650 10653 10655 10660 10666 10671 10673 10672 10671 10671 10670 10672 10674 10674 10675 10679 10684 10687 10688 10690 10691 10692 10693 10695 10695 10696 10697 10697 10698 10699 10699 10699 10698 10698 10696 10696 10695 10695 10694 10694 10693 10691 10690 10689 10688 10687 10685 10684 10683
10478 10476 10483 10492 10496 10503 10508 10509 10513 10520 10528 10533 10538 10546 10548 10547 10553 10562 10566 10572 10579 10584 10588 10593 10597 10601 10606 10609 10613 10621 10622 10620 10624 10629 10631 10636 10640 10644 10646 10649 10655 10663 10670 10672 10668 10665 10663 10663 10664 10665 10667 10671 10676 10681 10684 10686 10687 10687 10687 10689 10691 10693 10695 10695 10695 10694 10694 10694 10693 10693 10692 10691 10691 10690 10690 10690 10689 10688 10686 10685 10684 10683 10682 10681 10680 10678
10467 10469 10479 10485 10489 10497 10500 10502 10508 10516 10524 10530 10534 10536 10538 10543 10553 10559 10564 10572 10579 10582 10586 10591 10593 10595 10600 10604 10609 10616 10616 10615 10619 10623 10627 10631 10634 10637 10640 10644 10652 10659 10663 10661 10657 10655 10654 10653 10656 10661 10666 10669 10673 10677 10679 10681 10683 10684 10684 10686 10687 10688 10689 10689 10688 10688 10687 10687 10687 10687 10687 10686 10686 10685 10685 10685 10684 10683 10681 10680 10679 10678 10677 10677 10675 10674
10462 10466 10476 10480 10485 10491 10491 10496 10506 10514 10521 10525 10526 10529 10537 10544 10550 10555 10562 10570 10575 10577 10582 10587 10588 10590 10596 10601 10605 10610 10610 10611 10613 10617 10622 10625 10628 10632 10635 10640 10648 10653 10651 10649 10648 10649 10649 10652 10656 10661 10664 10665 10669 10672 10674 10676 10678 10680 10680 10680 10681 10681 10682 10682 10681 10681 10680 10680 10682 10682 10682 10681 10681 10680 10680 10679 10678 10677 10676 10675 10674 10673 10672 10672 10671 10670
10456 10462 10470 10474 10480 10484 10488 10498 10509 10513 10517 10520 10524 10531 10538 10542 10546 10554 10561 10565 10569 10573 10577 10582 10585 10586 10590 10596 10601 10604 10605 10606 10608 10612 10617 10620 10623 10627 10630 10636 10642 10643 10641 10642 10645 10647 10649 10651 10654 10657 10659 10662 10665 10668 10669 10670 10671 10674 10675 10675 10675 10675 10675 10675 10675 10675 10675 10675 10677 10677 10676 10676 10675 10675 10674 10674 10673 10671 10671 10670 10669 10668 10667 10666 10666 10665
10452 10459 10467 10471 10477 10483 10490 10499 10504 10507 10510 10515 10522 10530 10535 10539 10545 10552 10557 10561 10564 10567 10571 10577 10580 10581 10585 10592 10596 10597 10600 10602 10603 10607 10612 10615 10619 10623 10625 10629 10632 10633 10634 10638 10642 10644 10646 10647 10650 10653 10657 10659 10661 10662 10663 10664 10666 10669 10670 10670 10670 10669 10669 10670 10669 10669 10670 10671 10671 10671 10671 10671 10670 10670 10669 10668 10668 10666 10666 10665 10664 10663 10662 10661 10661 10660
10448 10457 10463 10466 10473 10479 10484 10490 10495 10499 10503 10509 10517 10522 10526 10533 10540 10547 10553 10555 10558 10562 10566 10571 10574 10577 10582 10587 10591 10593 10596 10597 10599 10603 10607 10611 10616 10618 10618 10620 10623 10626 10628 10634 10639 10641 10642 10644 10647 10651 10653 10655 10656 10657 10658 10660 10662 10664 10664 10664 10663 10663 10664 10665 10664 10664 10664 10664 10665 10665 10665 10665 10664 10664 10663 10663 10662 10661 10661 10660 10659 10658 10657 10656 10655 10654
10443 10452 10456 10459 10465 10470 10475 10481 10487 10491 10497 10506 10513 10516 10522 10530 10537 10541 10545 10547 10551 10557 10562 10566 10571 10576 10580 10583 10587 10589 10590 10592 10595 10598 10602 10608 10612 10611 10610 10612 10617 10621 10624 10629 10634 10635 10637 10641 10643 10646 10648 10649 10651 10652 10654 10656 10658 10660 10659 10658 10657 10657 10658 10659 10658 10658 10658 10657 10658 10659 10659 10659 10658 10658 10658 10658 10657 10656 10655 10654 10654 10653 10652 10651 10650 10648
10441 10448 10451 10453 10460 10466 10472 10478 10484 10490 10498 10507 10511 10514 10522 10527 10530 10533 10537 10541 10547 10553 10558 10563 10567 10571 10574 10577 10582 10583 10585 10589 10591 10593 10598 10605 10606 10604 10605 10608 10611 10616 10620 10624 10626 10629 10634 10638 10640 10642 10644 10645 10646 10648 10649 10651 10654 10655 10653 10652 10651 10651 10652 10653 10652 10652 10651 10651 10652 10653 10654 10653 10653 10653 10652 10652 10652 10651 10650 10648 10647 10647 10645 10645 10644 10642
10437 10443 10446 10451 10460 10469 10475 10484 10490 10495 10501 10505 10506 10510 10517 10521 10525 10530 10534 10538 10544 10549 10554 10558 10560 10565 10569 10572 10576 10578 10581 10584 10585 10589 10596 10598 10597 10597 10600 10603 10606 10611 10615 10617 10620 10624 10630 10634 10636 10639 10641 10641 10642 10643 10644 10646 10647 10648 10647 10646 10645 10646 10647 10646 10647 10647 10645 10645 10647 10648 10648 10648 10647 10647 10647 10647 10646 10645 10644 10643 10641 10640 10639 10638 10637 10636
10433 10438 10442 10449 10458 10464 10470 10478 10484 10488 10493 10498 10501 10507 10514 10518 10522 10527 10531 10535 10541 10545 10549 10552 10555 10559 10564 10567 10571 10573 10575 10577 10580 10585 10589 10589 10589 10592 10595 10599 10603 10605 10607 10611 10616 10620 10625 10630 10633 10636 10637 10637 10637 10637 10639 10640 10641 10641 10641 10640 10640 10641 10641 10641 10643 10642 10639 10640 10642 10642 10643 10643 10642 10642 10642 10641 10640 10639 10638 10636 10635 10634 10633 10632 10631 10630
10429 10435 10441 10447 10452 10456 10463 10470 10473 10479 10487 10492 10497 10504 10509 10513 10517 10523 10528 10532 10536 10541 10546 10548 10549 10553 10558 10563 10565 10567 10570 10572 10575 10579 10581 10582 10584 10587 10590 10594 10597 10599 10602 10607 10611 10616 10622 10627 10630 10631 10632 10631 10631 10631 10632 10634 10635 10635 10635 10635 10635 10637 10637 10636 10638 10638 10635 10635 10637 10638 10638 10637 10637 10637 10636 10635 10634 10632 10631 10630 10629 10628 10627 10626 10625 10624
10426 10434 10439 10443 10448 10455 10462 10466 10469 10474 10481 10485 10492 10499 10504 10509 10515 10521 10525 10527 10532 10539 10542 10542 10544 10549 10555 10558 10560 10564 10567 10568 10570 10573 10576 10578 10581 10583 10586 10589 10593 10596 10599 10602 10607 10614 10619 10623 10625 10626 10626 10626 10626 10626 10627 10628 10629 10629 10630 10630 10631 10632 10633 10632 10633 10634 10632 10632 10633 10633 10633 10633 10632 10631 10630 10629 10628 10627 10625 10624 10623 10622 10621 10620 10619 10617
10425 10431 10435 10439 10445 10452 10456 10460 10465 10471 10477 10482 10489 10494 10499 10505 10511 10516 10519 10523 10530 10535 10535 10536 10541 10546 10548 10552 10556 10561 10563 10563 10564 10568 10572 10574 10577 10578 10581 10584 10588 10592 10595 10599 10605 10610 10614 10619 10621 10620 10619 10620 10621 10622 10622 10622 10623 10624 10625 10626 10626 10627 10628 10628 10629 10629 10629 10629 10629 10629 10628 10628 10627 10626 10625 10624 10622 10621 10620 10619 10618 10616 10615 10614 10613 10611
10423 10428 10432 10436 10441 10446 10451 10457 10465 10472 10476 10480 10485 10489 10493 10498 10503 10508 10513 10518 10523 10527 10528 10532 10538 10541 10543 10548 10553 10557 10558 10557 10560 10563 10566 10569 10572 10574 10577 10580 10584 10588 10592 10598 10602 10607 10612 10616 10615 10612 10612 10614 10615 10615 10616 10616 10617 10618 10620 10621 10622 10622 10623 10624 10624 10624 10625 10625 10624 10623 10623 10622 10621 10621 10619 10618 10617 10616 10614 10613 10612 10610 10609 10608 10606 10605
10419 10425 10430 10433 10438 10445 10451 10457 10463 10467 10471 10475 10481 10485 10490 10496 10501 10506 10510 10513 10517 10521 10523 10528 10533 10535 10540 10544 10547 10548 10550 10552 10554 10557 10561 10565 10568 10571 10573 10576 10579 10585 10590 10594 10599 10604 10609 10610 10606 10606 10608 10608 10609 10609 10609 10609 10611 10613 10615 10616 10617 10617 10618 10619 10619 10619 10620 10620 10619 10618 10617 10616 10616 10615 10614 10613 10612 10610 10609 10607 10606 10605 10603 10601 10600 10599
10416 10422 10426 10430 10437 10444 10449 10454 10458 10461 10465 10472 10479 10485 10490 10495 10499 10503 10507 10510 10514 10518 10522 10525 10528 10529 10534 10539 10538 10540 10543 10546 10548 10552 10555 10560 10564 10567 10569 10572 10577 10583 10587 10590 10595 10601 10603 10601 10601 10602 10603 10603 10605 10604 10602 10603 10607 10609 10610 10612 10612 10613 10614 10614 10614 10614 10615 10614 10614 10613 10612 10611 10610 10609 10608 10607 10606 10604 10603 10602 10600 10599 10597 10595 10594 10593
10413 10418 10422 10427 10434 10439 10444 10448 10451 10456 10464 10472 10478 10483 10488 10492 10496 10500 10504 10507 10511 10515 10519 10521 10522 10524 10530 10534 10533 10534 10538 10541 10544 10548 10551 10555 10559 10562 10565 10569 10575 10579 10582 10586 10591 10594 10595 10596 10598 10600 10601 10602 10601 10598 10596 10598 10602 10605 10606 10608 10608 10608 10608 10608 10608 10609 10609 10609 10608 10607 10606 10606 10605 10603 10602 10601 10600 10598 10597 10596 10594 10593 10591 10590 10588 10587
10409 10414 10419 10425 10430 10434 10438 10442 10447 10456 10465 10471 10475 10478 10483 10487 10491 10496 10500 10503 10507 10512 10514 10516 10518 10522 10527 10528 10529 10531 10534 10538 10542 10545 10547 10551 10554 10557 10561 10565 10569 10573 10577 10581 10586 10588 10590 10593 10595 10596 10597 10597 10594 10592 10593 10595 10598 10600 10602 10603 10604 10604 10604 10603 10603 10603 10603 10603 10602 10601 10601 10600 10599 10598 10596 10595 10594 10593 10591 10589 10588 10586 10585 10583 10582 10580
10405 10410 10416 10421 10425 10429 10435 10441 10449 10457 10463 10467 10470 10474 10478 10483 10487 10491 10495 10499 10504 10507 10509 10511 10513 10517 10520 10522 10525 10528 10531 10534 10538 10540 10542 10545 10549 10552 10556 10558 10562 10567 10572 10577 10580 10582 10583 10585 10587 10588 10589 10590 10588 10588 10590 10591 10593 10595 10597 10597 10598 10598 10598 10598 10598 10598 10597 10597 10597 10596 10595 10594 10593 10592 10590 10589 10588 10586 10585 10583 10581 10580 10579 10577 10575 10573
10403 10409 10414 10418 10424 10429 10435 10441 10446 10452 10457 10461 10465 10469 10473 10478 10482 10485 10489 10493 10497 10500 10502 10505 10508 10512 10516 10519 10521 10524 10527 10529 10533 10535 10538 10539 10542 10546 10549 10552 10558 10564 10569 10572 10573 10573 10574 10576 10579 10581 10583 10583 10584 10584 10585 10586 10588 10590 10591 10592 10593 10593 10593 10592 10592 10592 10592 10592 10592 10590 10589 10588 10587 10586 10584 10583 10582 10580 10578 10577 10575 10573 10572 10570 10568 10566
10402 10407 10411 10415 10421 10426 10430 10435 10441 10447 10452 10456 10460 10463 10468 10472 10476 10479 10483 10487 10491 10495 10498 10501 10504 10508 10512 10515 10517 10519 10522 10525 10527 10529 10532 10533 10536 10540 10544 10548 10554 10558 10562 10565 10564 10564 10567 10570 10573 10575 10577 10577 10578 10578 10579 10581 10582 10583 10585 10586 10587 10587 10587 10587 10587 10587 10587 10586 10585 10584 10583 10582 10580 10579 10578 10576 10575 10573 10571 10570 10568 10566 10565 10563 10561 10559
10399 10402 10406 10412 10417 10421 10426 10432 10438 10443 10447 10452 10455 10459 10463 10467 10470 10474 10479 10484 10489 10492 10494 10497 10500 10504 10507 10510 10511 10514 10517 10518 10519 10522 10525 10528 10531 10535 10539 10544 10548 10551 10555 10558 10557 10557 10561 10566 10568 10570 10571 10571 10572 10573 10574 10576 10577 10578 10579 10579 10580 10581 10581 10581 10581 10581 10580 10579 10578 10577 10576 10575 10574 10572 10571 10569 10568 10566 10564 10562 10561 10559 10557 10556 10554 10551
10396 10400 10405 10412 10416 10419 10425 10430 10433 10438 10444 10448 10451 10455 10459 10463 10466 10470 10475 10481 10485 10487 10489 10492 10495 10499 10502 10505 10507 10509 10510 10511 10514 10517 10520 10524 10528 10532 10536 10539 10542 10546 10549 10551 10551 10553 10558 10561 10563 10564 10564 10565 10567 10568 10570 10570 10571 10572 10573 10574 10575 10575 10575 10575 10574 10574 10574 10573 10572 10571 10570 10568 10567 10566 10564 10562 10561 10559 10557 10555 10553 10552 10550 10548 10545 10542
10395 10400 10406 10410 10413 10417 10422 10426 10430 10437 10441 10444 10448 10452 10456 10460 10464 10469 10474 10478 10479 10480 10483 10487 10491 10494 10498 10500 10501 10501 10504 10507 10510 10513 10517 10521 10525 10528 10531 10534 10537 10541 10544 10545 10547 10550 10553 10555 10556 10557 10558 10560 10562 10563 10564 10565 10566 10567 10568 10569 10569 10569 10569 10569 10568 10568 10568 10567 10566 10565 10564 10562 10561 10559 10558 10556 10554 10552 10550 10548 10545 10544 10542 10540 10537 10534
10395 10399 10403 10406 10410 10414 10418 10422 10428 10433 10437 10440 10445 10449 10453 10457 10462 10466 10469 10471 10472 10474 10478 10483 10486 10490 10493 10494 10494 10497 10501 10504 10506 10508 10512 10516 10519 10523 10526 10529 10533 10536 10539 10540 10542 10545 10547 10548 10549 10551 10553 10555 10557 10558 10560 10561 10562 10563 10563 10563 10563 10563 10563 10563 10563 10563 10562 10562 10561 10560 10558 10556 10555 10553 10552 10550 10548 10546 10543 10541 10539 10536 10534 10532 10530 10527
10394 10397 10400 10403 10407 10411 10415 10419 10425 10430 10435 10439 10443 10446 10450 10454 10457 10459 10462 10464 10466 10470 10475 10479 10482 10485 10487 10488 10491 10494 10497 10499 10501 10504 10508 10511 10515 10518 10522 10525 10528 10531 10533 10535 10538 10540 10541 10542 10543 10546 10548 10550 10553 10554 10555 10556 10556 10557 10557 10556 10556 10557 10557 10557 10557 10557 10556 10556 10555 10554 10552 10550 10549 10547 10545 10544 10542 10540 10537 10535 10533 10530 10528 10526 10523 10520
10392 10395 10399 10401 10404 10407 10412 10417 10423 10428 10432 10435 10438 10440 10444 10447 10449 10451 10455 10458 10462 10467 10472 10476 10477 10478 10481 10484 10487 10489 10491 10493 10497 10500 10503 10506 10510 10513 10516 10519 10523 10525 10528 10530 10532 10534 10535 10537 10539 10541 10543 10546 10548 10549 10549 10550 10550 10550 10550 10550 10550 10551 10552 10552 10551 10551 10550 10549 10549 10547 10546 10544 10542 10541 10540 10538 10536 10534 10531 10529 10526 10524 10522 10519 10516 10514
10391 10394 10396 10399 10402 10406 10410 10415 10418 10422 10425 10429 10431 10433 10437 10440 10443 10446 10451 10455 10460 10463 10468 10471 10473 10474 10478 10480 10482 10483 10485 10489 10492 10496 10499 10502 10505 10508 10511 10514 10517 10520 10522 10525 10527 10528 10530 10532 10534 10536 10539 10541 10542 10543 10543 10544 10544 10544 10544 10544 10545 10546 10546 10546 10545 10545 10544 10543 10542 10541 10540 10538 10536 10535 10533 10532 10530 10527 10525 10522 10520 10517 10515 10513 10510 10507
10389 10391 10393 10396 10400 10404 10408 10411 10413 10416 10420 10423 10425 10428 10432 10436 10439 10442 10446 10451 10455 10458 10463 10466 10468 10470 10473 10475 10476 10478 10481 10484 10488 10492 10495 10498 10501 10503 10506 10509 10512 10515 10518 10520 10521 10522 10524 10527 10530 10532 10533 10535 10536 10536 10537 10537 10537 10537 10538 10539 10540 10540 10540 10540 10540 10539 10538 10537 10536 10535 10533 10532 10530 10529 10527 10526 10523 10521 10518 10516 10514 10511 10509 10506 10504 10501
10387 10389 10391 10394 10398 10402 10405 10407 10409 10412 10416 10419 10421 10425 10428 10431 10434 10437 10442 10446 10449 10453 10457 10461 10462 10464 10467 10469 10471 10473 10477 10480 10484 10488 10491 10494 10497 10499 10501 10504 10507 10509 10512 10513 10514 10516 10519 10522 10524 10526 10527 10528 10529 10530 10530 10531 10531 10531 10532 10534 10534 10534 10534 10534 10534 10533 10532 10531 10529 10528 10526 10525 10524 10523 10521 10519 10516 10514 10512 10509 10507 10505 10502 10500 10498 10495
10383 10385 10388 10391 10394 10398 10401 10403 10404 10408 10413 10415 10418 10421 10424 10426 10430 10433 10436 10440 10444 10448 10452 10455 10457 10459 10462 10464 10466 10469 10473 10476 10480 10484 10487 10489 10492 10494 10496 10499 10501 10504 10506 10507 10508 10511 10514 10517 10518 10519 10520 10522 10523 10523 10524 10524 10525 10526 10527 10528 10528 10528 10528 10528 10527 10526 10525 10524 10523 10521 10519 10518 10517 10516 10514 10512 10509 10507 10505 10503 10501 10498 10496 10494 10491 10489
10378 10381 10384 10387 10390 10393 10396 10397 10400 10405 10409 10411 10413 10416 10418 10421 10425 10428 10432 10435 10439 10442 10445 10449 10451 10454 10456 10459 10462 10465 10468 10472 10476 10479 10482 10485 10487 10489 10491 10493 10496 10499 10500 10501 10503 10506 10509 10511 10512 10513 10514 10515 10516 10517 10518 10518 10519 10520 10521 10521 10522 10522 10522 10521 10520 10520 10518 10517 10516 10514 10513 10511 10510 10508 10506 10504 10502 10501 10499 10496 10494 10492 10489 10487 10484 10482
10376 10378 10380 10383 10386 10389 10391 10393 10397 10401 10403 10404 10406 10409 10412 10415 10418 10422 10426 10429 10433 10436 10439 10442 10445 10448 10451 10454 10456 10460 10464 10467 10471 10474 10477 10480 10481 10483 10485 10489 10491 10493 10495 10496 10499 10501 10503 10505 10506 10507 10508 10509 10510 10511 10511 10512 10513 10514 10515 10516 10516 10516 10515 10514 10513 10512 10511 10510 10508 10507 10506 10504 10503 10501 10499 10498 10496 10494 10492 10490 10488 10485 10483 10480 10478 10475
10372 10374 10376 10378 10381 10382 10384 10387 10391 10393 10394 10396 10399 10402 10406 10410 10413 10416 10420 10423 10426 10429 10432 10435 10439 10442 10445 10448 10451 10455 10459 10462 10465 10469 10472 10474 10476 10478 10481 10484 10486 10488 10490 10492 10494 10496 10497 10499 10500 10501 10502 10503 10504 10505 10506 10507 10508 10508 10509 10510 10510 10509 10508 10507 10506 10505 10504 10503 10502 10500 10499 10498 10496 10494 10493 10491 10489 10487 10485 10483 10481 10478 10476 10473 10471 10468